Wilmington, DE

9:35 PM EST on November 16, 2019 (GMT -0500)
New Castle County

Weather History for KILG - August, 2019

Change the Weather History Date:

Tuesday, August 27, 2019

  Actual Average Record
Temperature  
Mean Temperature 70 °F 74 °F  
Max Temperature 79 °F 83 °F 98 °F (1948)
Min Temperature 61 °F 65 °F 49 °F (1944)
Degree Days  
Heating Degree Days 0 0  
Month to date heating degree days 0 0  
Since 1 June heating degree days 5 15  
Since 1 July heating degree days 0 0  
Cooling Degree Days 5 9  
Month to date cooling degree days 328 282  
Year to date cooling degree days 1190 959  
Since 1 June cooling degree days 1058 880  
Growing Degree Days 20 (Base 50)    
Moisture  
Dew Point 63 °F    
Average Humidity 81    
Maximum Humidity 100    
Minimum Humidity 62    
Precipitation  
Precipitation 0.00 in 0.09 in 5.38 in (2011)
Month to date precipitation 2.66 2.87  
Year to date precipitation 36.12 28.38  
Snow  
Snow 0.00 in 0.00 in T in (1895)
Month to date snowfall 0.0 0.0  
Since 1 June snowfall 0.0 0.0  
Since 1 July snowfall 0.0 0.0  
Snow Depth 0.00 in    
Sea Level Pressure  
Sea Level Pressure 30.05 in    
Wind  
Wind Speed 5 mph (ESE)    
Max Wind Speed 10 mph    
Max Gust Speed 13 mph    
Visibility 10 miles    
Events      
T = Trace of Precipitation, MM = Missing Value Source: NWS Daily Summary

Daily Weather History Graph

Daily Weather History Graph

Search for Another Location

Airport or City:

Astronomy

Aug. 27, 2019 Rise Set
Actual Time 6:25 AM EDT 7:41 PM EDT
Civil Twilight 5:57 AM EDT 8:09 PM EDT
Nautical Twilight 5:24 AM EDT 8:42 PM EDT
Astronomical Twilight 4:49 AM EDT 9:17 PM EDT
Moon 2:48 AM EDT (8/27) 5:59 PM EDT (8/27)
Length of Visible Light 14h 11m
Length of Day
13h 15m
Waning Crescent, 11% of the Moon is Illuminated
Aug 27
Waning Crescent
Aug 30
New
Sep 5
First Quarter
Sep 14
Full
Sep 21
Last Quarter

Hourly Weather History & Observations

Time (EDT) Temp. Dew Point Humidity Pressure Visibility Wind Dir Wind Speed Gust Speed Precip Events Conditions
12:51 AM 64.0 °F 60.1 °F 87% 30.14 in 10.0 mi ENE 5.8 mph - N/A   Clear
1:51 AM 63.0 °F 60.1 °F 90% 30.13 in 10.0 mi NE 5.8 mph - N/A   Clear
2:51 AM 62.1 °F 60.1 °F 93% 30.11 in 10.0 mi Calm Calm - N/A   Clear
3:51 AM 61.0 °F 60.1 °F 97% 30.09 in 10.0 mi Calm Calm - N/A   Clear
4:51 AM 62.1 °F 59.0 °F 90% 30.07 in 10.0 mi ENE 5.8 mph - N/A   Clear
5:51 AM 63.0 °F 60.1 °F 90% 30.07 in 10.0 mi NE 4.6 mph - N/A   Clear
6:51 AM 64.0 °F 60.1 °F 87% 30.08 in 10.0 mi East 9.2 mph - N/A   Clear
7:51 AM 64.0 °F 62.1 °F 93% 30.09 in 10.0 mi Calm Calm - N/A   Partly Cloudy
8:46 AM 66.2 °F 60.8 °F 83% 30.09 in 10.0 mi East 5.8 mph - N/A   Mostly Cloudy
8:51 AM 66.9 °F 61.0 °F 81% 30.09 in 10.0 mi East 4.6 mph - N/A   Scattered Clouds
9:24 AM 68.0 °F 61.0 °F 78% 30.10 in 10.0 mi East 5.8 mph - N/A   Mostly Cloudy
9:51 AM 69.1 °F 61.0 °F 75% 30.10 in 10.0 mi NE 5.8 mph - N/A   Overcast
10:36 AM 70.0 °F 61.0 °F 73% 30.09 in 10.0 mi East 8.1 mph - N/A   Partly Cloudy
10:51 AM 70.0 °F 62.1 °F 76% 30.09 in 10.0 mi ENE 6.9 mph - N/A   Clear
11:26 AM 71.1 °F 61.0 °F 70% 30.08 in 10.0 mi ESE 8.1 mph - N/A   Mostly Cloudy
11:40 AM 71.1 °F 62.1 °F 73% 30.07 in 10.0 mi East 8.1 mph - N/A   Scattered Clouds
11:51 AM 72.0 °F 63.0 °F 73% 30.07 in 10.0 mi SE 8.1 mph - N/A   Partly Cloudy
12:51 PM 73.0 °F 62.1 °F 68% 30.06 in 10.0 mi Calm Calm - N/A   Partly Cloudy
1:51 PM 75.0 °F 62.1 °F 64% 30.04 in 10.0 mi Variable 5.8 mph - N/A   Partly Cloudy
2:51 PM 75.9 °F 63.0 °F 64% 30.03 in 10.0 mi Calm Calm - N/A   Partly Cloudy
3:51 PM 78.1 °F 64.9 °F 64% 30.01 in 10.0 mi SE 4.6 mph - N/A   Scattered Clouds
4:51 PM 75.9 °F 64.9 °F 69% 30.00 in 10.0 mi Variable 3.5 mph - N/A   Mostly Cloudy
5:51 PM 75.9 °F 64.9 °F 69% 29.99 in 10.0 mi South 5.8 mph - N/A   Clear
6:51 PM 75.0 °F 64.9 °F 71% 29.98 in 10.0 mi South 5.8 mph - N/A   Clear
7:51 PM 73.0 °F 64.9 °F 76% 29.99 in 10.0 mi South 3.5 mph - N/A   Clear
8:51 PM 73.0 °F 68.0 °F 84% 30.00 in 10.0 mi East 6.9 mph - N/A   Mostly Cloudy
9:51 PM 72.0 °F 66.0 °F 81% 30.01 in 10.0 mi ESE 8.1 mph - N/A   Overcast
10:08 PM 71.1 °F 66.0 °F 84% 30.01 in 10.0 mi ESE 6.9 mph - N/A   Scattered Clouds
10:29 PM 71.1 °F 66.0 °F 84% 30.02 in 10.0 mi SE 6.9 mph - N/A   Mostly Cloudy
10:51 PM 70.0 °F 66.0 °F 87% 30.02 in 10.0 mi ESE 3.5 mph - N/A   Overcast
11:11 PM 70.0 °F 64.9 °F 84% 30.02 in 10.0 mi East 3.5 mph - N/A   Mostly Cloudy
11:51 PM 69.1 °F 64.9 °F 87% 30.00 in 10.0 mi East 6.9 mph - N/A   Partly Cloudy